Location: Nashville
(36.1660°N, 86.7840°W)
Time: 15:46:05
(UTC-05:00)

ISS - Visible Passes

Search period start: 07 October 2024 00:00
Search period end: 17 October 2024 00:00
Orbit: 412 x 424 km, 51.6° (Epoch: 07 October)

Date Brightness Start Highest point End Pass type
(mag) Time Alt. Az. Time Alt. Az. Time Alt. Az.
13 Oct -0.6 06:20:11 10° SSE 06:21:56 14° SE 06:23:41 10° E visible
15 Oct -2.6 06:18:46 10° SSW 06:21:56 44° SE 06:25:07 10° ENE visible
16 Oct -1.5 05:31:02 10° S 05:33:43 23° SE 05:36:26 10° ENE visible
